Regional Weather Roundup
Issued by NWS

Home | Current Version | Previous Version | Text Only | Print | Product List | Glossary Off
Versions: 1 2 3 4 5 6 7 8 9 10 11 12 13 14 15 16 17 18 19 20 21 22 23 24 25 26 27 28 29 30 31 32 33 34 35 36 37 38 39 40 41 42 43 44 45 46 47 48 49 50

000
ASUS45 KCYS 260310
RWRWY

WYOMING REGIONAL WEATHER ROUNDUP
NATIONAL WEATHER SERVICE CHEYENNE WY
900 PM MDT SUN SEP 25 2016

NOTE:  "FAIR" INDICATES FEW OR NO CLOUDS BELOW 12,000 FEET
WITH NO SIGNIFICANT WEATHER AND/OR OBSTRUCTIONS TO VISIBILITY.

WYZ001-260400-
YELLOWSTONE NATIONAL PARK

CITY           SKY/WX    TMP DP  RH WIND       PRES   REMARKS
LK YELLOWSTONE   N/A     39  35  86 CALM      30.58R
W YELLOWSTONE  NOT AVBL

$$
WYZ002>013-054>058-071-098>099-260400-
NORTHERN WYOMING

CITY           SKY/WX    TMP DP  RH WIND       PRES   REMARKS
JACKSON        NOT AVBL
CODY           FAIR      51  41  68 E5        30.42R
GREYBULL       FAIR      54  46  74 CALM      30.37R
WORLAND        FAIR      49  43  80 E6        30.37R
SHERIDAN       FAIR      47  42  83 S5        30.34R
BUFFALO        MOCLDY    49  41  74 SW9       30.38S
GILLETTE       FAIR      44  40  85 CALM      30.36R
HULETT         FAIR      45  36  70 S7        30.36R
NEWCASTLE      FAIR      46  32  57 N9        30.37R

$$
WYZ014>020-022>026-101>103-260400-
CENTRAL WYOMING

CITY           SKY/WX    TMP DP  RH WIND       PRES   REMARKS
BIG PINEY      FAIR      48  35  60 NW10      30.50R
PINEDALE       FAIR      50  34  53 NW17      30.50S
DUBOIS         FAIR      50  32  50 W16G23    30.49R
LANDER         FAIR      55  38  52 CALM      30.41R
RIVERTON       FAIR      51  41  68 NE8       30.42R
CASPER         FAIR      46  37  71 W7        30.41R
DOUGLAS        FAIR      47  37  68 CALM      30.40R

$$
WYZ021-027>030-104>119-260400-
SOUTHERN WYOMING

CITY           SKY/WX    TMP DP  RH WIND       PRES   REMARKS
EVANSTON       FAIR      53  34  48 NE7       30.54R
FORT BRIDGER   FAIR      52  35  52 W9        30.55R
ROCK SPRINGS   FAIR      48  34  58 S10       30.48R
DIXON          FAIR      44  38  77 E5        30.54R
RAWLINS        FAIR      47  34  60 W7        30.50R
SARATOGA       FAIR      43  34  70 E6        30.52R
LARAMIE        FAIR      45  32  60 W6        30.51R
CHEYENNE       FAIR      49  32  52 W5        30.47R
TORRINGTON     FAIR      50  36  58 NE6       30.37R
PINE BLUFFS    FAIR      45  34  65 SW7       30.44R

$$



USA.gov is the U.S. government's official web portal to all federal, state and local government web resources and services.